| time (UTC) | temp F | wind direction | speed MPH | gust MPH | rain 1hr in | rain 24hr in | rain mn in | humidity % | barometer mb |
| 20260905080547 | 61 | 283 | 0.0 | 1.0 | 0.00 | 0.00 | 0.00 | 47 | 1015.2 |
| 20260905080305 | 61 | 270 | 0.0 | 1.0 | 0.00 | 0.00 | 0.00 | 47 | 1015.2 |
| 20260905080146 | 61 | 270 | 0.0 | 1.0 | 0.00 | 0.00 | 0.00 | 47 | 1015.2 |
| 20260905075745 | 62 | 279 | 1.0 | 1.0 | 0.00 | 0.00 | 0.00 | 47 | 1015.2 |
| 20260905074943 | 62 | 279 | 1.0 | 1.0 | 0.00 | 0.00 | 0.00 | 47 | 1015.2 |
| 20260905074541 | 62 | 279 | 0.0 | 0.0 | 0.00 | 0.00 | 0.00 | 47 | 1015.2 |
| 20260905074140 | 62 | 346 | 0.0 | 0.0 | 0.00 | 0.00 | 0.00 | 46 | 1015.2 |
| 20260905073738 | 62 | 335 | 0.0 | 0.0 | 0.00 | 0.00 | 0.00 | 46 | 1015.2 |
| 20260905073338 | 62 | 339 | 0.0 | 0.0 | 0.00 | 0.00 | 0.00 | 46 | 1015.2 |
| 20260905072936 | 62 | 292 | 0.0 | 0.0 | 0.00 | 0.00 | 0.00 | 46 | 1015.2 |
| 20260905072535 | 62 | 274 | 0.0 | 1.0 | 0.00 | 0.00 | 0.00 | 46 | 1015.2 |
| 20260905072134 | 62 | 288 | 1.0 | 1.0 | 0.00 | 0.00 | 0.00 | 46 | 1015.2 |
| 20260905071733 | 62 | 310 | 0.0 | 0.0 | 0.00 | 0.00 | 0.00 | 46 | 1015.2 |
| 20260905071331 | 63 | 137 | 0.0 | 1.0 | 0.00 | 0.00 | 0.00 | 46 | 1015.2 |
| 20260905070930 | 63 | 137 | 0.0 | 0.0 | 0.00 | 0.00 | 0.00 | 46 | 1015.2 |
| 20260905070529 | 63 | 270 | 0.0 | 1.0 | 0.00 | 0.00 | 0.00 | 45 | 1015.2 |
| 20260905070127 | 63 | 227 | 0.0 | 0.0 | 0.00 | 0.00 | 0.00 | 45 | 1015.1 |
| 20260905065325 | 63 | 326 | 0.0 | 0.0 | 0.00 | 0.00 | 0.00 | 45 | 1015.1 |
| 20260905064121 | 64 | 137 | 0.0 | 0.0 | 0.00 | 0.00 | 0.00 | 45 | 1015.1 |
| 20260905062910 | 65 | 239 | 0.0 | 1.0 | 0.00 | 0.00 | 0.00 | 44 | 1014.9 |
| 20260905062509 | 65 | 221 | 1.0 | 1.0 | 0.00 | 0.00 | 0.00 | 44 | 1014.9 |
| 20260905062108 | 65 | 236 | 0.0 | 1.0 | 0.00 | 0.00 | 0.00 | 44 | 1015.0 |
| 20260905061306 | 65 | 279 | 0.0 | 1.0 | 0.00 | 0.00 | 0.00 | 44 | 1015.0 |
| 20260905060904 | 65 | 235 | 0.0 | 0.0 | 0.00 | 0.00 | 0.00 | 44 | 1015.0 |
| 20260905055702 | 66 | 321 | 0.0 | 0.0 | 0.00 | 0.00 | 0.00 | 43 | 1015.0 |
| 20260905055259 | 66 | 279 | 0.0 | 0.0 | 0.00 | 0.00 | 0.00 | 43 | 1015.0 |
| 20260905054901 | 66 | 339 | 0.0 | 0.0 | 0.00 | 0.00 | 0.00 | 43 | 1015.0 |
| 20260905054457 | 66 | 324 | 0.0 | 0.0 | 0.00 | 0.00 | 0.00 | 43 | 1014.9 |
| 20260905053654 | 66 | 324 | 0.0 | 0.0 | 0.00 | 0.00 | 0.00 | 43 | 1014.9 |
| 20260905053253 | 66 | 324 | 0.0 | 0.0 | 0.00 | 0.00 | 0.00 | 43 | 1014.9 |
| 20260905052451 | 67 | 330 | 0.0 | 0.0 | 0.00 | 0.00 | 0.00 | 42 | 1014.9 |
| 20260905052049 | 67 | 333 | 0.0 | 0.0 | 0.00 | 0.00 | 0.00 | 42 | 1015.0 |
| 20260905051647 | 67 | 283 | 0.0 | 0.0 | 0.00 | 0.00 | 0.00 | 42 | 1014.9 |
| 20260905051246 | 67 | 243 | 0.0 | 1.0 | 0.00 | 0.00 | 0.00 | 42 | 1014.9 |
| 20260905050845 | 67 | 279 | 1.0 | 2.0 | 0.00 | 0.00 | 0.00 | 42 | 1015.0 |
| 20260905050444 | 67 | 283 | 0.0 | 1.0 | 0.00 | 0.00 | 0.00 | 42 | 1014.9 |
| 20260905050043 | 67 | 279 | 1.0 | 2.0 | 0.00 | 0.00 | 0.00 | 42 | 1014.9 |
| 20260905045240 | 68 | 279 | 3.0 | 3.0 | 0.00 | 0.00 | 0.00 | 42 | 1014.9 |
| 20260905044839 | 68 | 255 | 0.0 | 2.0 | 0.00 | 0.00 | 0.00 | 41 | 1014.8 |
| 20260905044036 | 68 | 274 | 2.0 | 3.0 | 0.00 | 0.00 | 0.00 | 41 | 1014.8 |
| 20260905043635 | 68 | 283 | 2.0 | 3.0 | 0.00 | 0.00 | 0.00 | 41 | 1014.6 |
| 20260905043234 | 68 | 292 | 1.0 | 3.0 | 0.00 | 0.00 | 0.00 | 41 | 1014.7 |
| 20260905042832 | 68 | 270 | 3.0 | 3.0 | 0.00 | 0.00 | 0.00 | 40 | 1014.6 |
| 20260905042431 | 68 | 288 | 1.0 | 3.0 | 0.00 | 0.00 | 0.00 | 40 | 1014.5 |
| 20260905042030 | 68 | 279 | 1.0 | 3.0 | 0.00 | 0.00 | 0.00 | 40 | 1014.5 |
| 20260905041629 | 68 | 274 | 2.0 | 3.0 | 0.00 | 0.00 | 0.00 | 39 | 1014.5 |
| 20260905041227 | 68 | 283 | 2.0 | 3.0 | 0.00 | 0.00 | 0.00 | 39 | 1014.5 |
| 20260905040418 | 68 | 270 | 2.0 | 2.0 | 0.00 | 0.00 | 0.00 | 38 | 1014.4 |
| 20260905035215 | 69 | 274 | 1.0 | 2.0 | 0.00 | 0.00 | 0.00 | 38 | 1014.3 |
| 20260905034814 | 69 | 189 | 0.0 | 1.0 | 0.00 | 0.00 | 0.00 | 37 | 1014.2 |
| 20260905034412 | 69 | 324 | 0.0 | 2.0 | 0.00 | 0.00 | 0.00 | 37 | 1014.1 |
| 20260905034014 | 69 | 301 | 1.0 | 1.0 | 0.00 | 0.00 | 0.00 | 37 | 1014.1 |
| 20260905033610 | 70 | 310 | 0.0 | 1.0 | 0.00 | 0.00 | 0.00 | 37 | 1014.0 |
| 20260905033209 | 70 | 274 | 1.0 | 1.0 | 0.00 | 0.00 | 0.00 | 36 | 1014.0 |
| 20260905032406 | 71 | 292 | 0.0 | 0.0 | 0.00 | 0.00 | 0.00 | 36 | 1013.9 |
| 20260905031603 | 71 | 186 | 0.0 | 0.0 | 0.00 | 0.00 | 0.00 | 35 | 1013.8 |
| 20260905030801 | 72 | 328 | 0.0 | 0.0 | 0.00 | 0.00 | 0.00 | 35 | 1013.8 |
| 20260905025958 | 73 | 274 | 0.0 | 0.0 | 0.00 | 0.00 | 0.00 | 34 | 1013.7 |
| 20260905025155 | 73 | 283 | 0.0 | 0.0 | 0.00 | 0.00 | 0.00 | 33 | 1013.7 |
| 20260905024754 | 74 | 312 | 0.0 | 0.0 | 0.00 | 0.00 | 0.00 | 33 | 1013.6 |
| 20260905024354 | 74 | 339 | 1.0 | 1.0 | 0.00 | 0.00 | 0.00 | 33 | 1013.6 |
| 20260905023551 | 75 | 283 | 0.0 | 0.0 | 0.00 | 0.00 | 0.00 | 32 | 1013.6 |
| 20260905023149 | 76 | 227 | 0.0 | 1.0 | 0.00 | 0.00 | 0.00 | 31 | 1013.6 |
| 20260905022748 | 76 | 186 | 1.0 | 2.0 | 0.00 | 0.00 | 0.00 | 31 | 1013.5 |
| 20260905022347 | 76 | 200 | 0.0 | 2.0 | 0.00 | 0.00 | 0.00 | 31 | 1013.6 |
| 20260905021945 | 76 | 279 | 1.0 | 2.0 | 0.00 | 0.00 | 0.00 | 30 | 1013.5 |
| 20260905021544 | 76 | 215 | 1.0 | 4.0 | 0.00 | 0.00 | 0.00 | 30 | 1013.5 |
| 20260905021143 | 76 | 191 | 2.0 | 5.0 | 0.00 | 0.00 | 0.00 | 30 | 1013.5 |
| 20260905020741 | 77 | 191 | 2.0 | 4.0 | 0.00 | 0.00 | 0.00 | 29 | 1013.6 |
| 20260905020340 | 77 | 209 | 1.0 | 3.0 | 0.00 | 0.00 | 0.00 | 29 | 1013.6 |
| 20260905015939 | 78 | 177 | 2.0 | 3.0 | 0.00 | 0.00 | 0.00 | 28 | 1013.6 |
| 20260905015136 | 79 | 180 | 2.0 | 4.0 | 0.00 | 0.00 | 0.00 | 28 | 1013.5 |
| 20260905014735 | 79 | 167 | 2.0 | 5.0 | 0.00 | 0.00 | 0.00 | 27 | 1013.6 |
| 20260905014334 | 79 | 334 | 1.0 | 7.0 | 0.00 | 0.00 | 0.00 | 27 | 1013.6 |
| 20260905013932 | 79 | 192 | 3.0 | 5.0 | 0.00 | 0.00 | 0.00 | 26 | 1013.6 |
| 20260905013531 | 80 | 135 | 4.0 | 6.0 | 0.00 | 0.00 | 0.00 | 26 | 1013.6 |
| 20260905012729 | 81 | 168 | 3.0 | 6.0 | 0.00 | 0.00 | 0.00 | 25 | 1013.8 |
| 20260905011926 | 82 | 180 | 5.0 | 9.0 | 0.00 | 0.00 | 0.00 | 24 | 1013.8 |
| 20260905011524 | 82 | 155 | 3.0 | 9.0 | 0.00 | 0.00 | 0.00 | 24 | 1013.7 |
| 20260905011123 | 83 | 184 | 5.0 | 9.0 | 0.00 | 0.00 | 0.00 | 23 | 1013.7 |
| 20260905010722 | 83 | 177 | 8.0 | 9.0 | 0.00 | 0.00 | 0.00 | 23 | 1013.7 |
| 20260905010321 | 83 | 191 | 5.0 | 11.0 | 0.00 | 0.00 | 0.00 | 22 | 1013.7 |
| 20260905005518 | 83 | 167 | 5.0 | 11.0 | 0.00 | 0.00 | 0.00 | 22 | 1013.7 |
| 20260905005117 | 83 | 177 | 6.0 | 11.0 | 0.00 | 0.00 | 0.00 | 22 | 1013.7 |
| 20260905004716 | 84 | 186 | 5.0 | 11.0 | 0.00 | 0.00 | 0.00 | 21 | 1013.8 |
| 20260905004315 | 85 | 180 | 4.0 | 10.0 | 0.00 | 0.00 | 0.00 | 21 | 1013.7 |
| 20260905003913 | 85 | 137 | 9.0 | 10.0 | 0.00 | 0.00 | 0.00 | 21 | 1013.6 |
| 20260905002711 | 87 | 171 | 6.0 | 9.0 | 0.00 | 0.00 | 0.00 | 21 | 1013.7 |
| 20260905002308 | 87 | 189 | 7.0 | 9.0 | 0.00 | 0.00 | 0.00 | 21 | 1013.7 |
| 20260905000702 | 87 | 182 | 8.0 | 11.0 | 0.00 | 0.00 | 0.00 | 22 | 1013.7 |
| 20260905000303 | 87 | 177 | 4.0 | 9.0 | 0.00 | 0.00 | 0.00 | 22 | 1013.6 |
| 20260904235901 | 88 | 157 | 5.0 | 9.0 | 0.00 | 0.00 | 0.00 | 22 | 1013.7 |
| 20260904235459 | 88 | 135 | 5.0 | 8.0 | 0.00 | 0.00 | 0.00 | 22 | 1013.6 |
| 20260904235058 | 89 | 177 | 4.0 | 12.0 | 0.00 | 0.00 | 0.00 | 22 | 1013.7 |
| 20260904234657 | 90 | 198 | 3.0 | 6.0 | 0.00 | 0.00 | 0.00 | 21 | 1013.7 |
| 20260904234255 | 89 | 182 | 3.0 | 5.0 | 0.00 | 0.00 | 0.00 | 22 | 1013.7 |
| 20260904233452 | 90 | 182 | 5.0 | 10.0 | 0.00 | 0.00 | 0.00 | 22 | 1013.7 |
| 20260904232650 | 90 | 173 | 7.0 | 9.0 | 0.00 | 0.00 | 0.00 | 22 | 1013.8 |
| 20260904232250 | 90 | 202 | 6.0 | 8.0 | 0.00 | 0.00 | 0.00 | 22 | 1013.7 |
| 20260904231848 | 90 | 135 | 4.0 | 9.0 | 0.00 | 0.00 | 0.00 | 22 | 1013.8 |
| 20260904230644 | 90 | 160 | 8.0 | 10.0 | 0.00 | 0.00 | 0.00 | 21 | 1013.8 |
| 20260904230243 | 91 | 222 | 9.0 | 13.0 | 0.00 | 0.00 | 0.00 | 22 | 1013.8 |
| 20260904225432 | 91 | 193 | 6.0 | 10.0 | 0.00 | 0.00 | 0.00 | 22 | 1013.9 |
| 20260904225031 | 91 | 162 | 5.0 | 9.0 | 0.00 | 0.00 | 0.00 | 22 | 1013.9 |
| 20260904224630 | 91 | 175 | 8.0 | 9.0 | 0.00 | 0.00 | 0.00 | 22 | 1013.9 |
| 20260904224229 | 92 | 177 | 9.0 | 11.0 | 0.00 | 0.00 | 0.00 | 22 | 1013.9 |
| 20260904223828 | 91 | 168 | 5.0 | 10.0 | 0.00 | 0.00 | 0.00 | 21 | 1013.9 |
| 20260904222623 | 92 | 180 | 8.0 | 10.0 | 0.00 | 0.00 | 0.00 | 22 | 1013.9 |
| 20260904221821 | 92 | 191 | 5.0 | 7.0 | 0.00 | 0.00 | 0.00 | 21 | 1013.8 |
| 20260904221420 | 92 | 146 | 2.0 | 11.0 | 0.00 | 0.00 | 0.00 | 22 | 1014.1 |
| 20260904221018 | 92 | 171 | 4.0 | 13.0 | 0.00 | 0.00 | 0.00 | 22 | 1014.1 |
| 20260904220617 | 92 | 192 | 5.0 | 8.0 | 0.00 | 0.00 | 0.00 | 22 | 1014.1 |
| 20260904220216 | 92 | 157 | 5.0 | 10.0 | 0.00 | 0.00 | 0.00 | 23 | 1014.0 |
| 20260904215814 | 93 | 157 | 6.0 | 11.0 | 0.00 | 0.00 | 0.00 | 23 | 1014.1 |
| 20260904215012 | 92 | 198 | 8.0 | 14.0 | 0.00 | 0.00 | 0.00 | 22 | 1014.1 |
| 20260904214611 | 92 | 155 | 6.0 | 10.0 | 0.00 | 0.00 | 0.00 | 22 | 1014.1 |
| 20260904214209 | 92 | 184 | 9.0 | 11.0 | 0.00 | 0.00 | 0.00 | 22 | 1014.2 |
| 20260904213808 | 92 | 193 | 7.0 | 11.0 | 0.00 | 0.00 | 0.00 | 23 | 1014.2 |
| 20260904213407 | 92 | 191 | 8.0 | 12.0 | 0.00 | 0.00 | 0.00 | 22 | 1014.1 |
| 20260904212605 | 91 | 182 | 8.0 | 9.0 | 0.00 | 0.00 | 0.00 | 23 | 1014.3 |
| 20260904212203 | 90 | 170 | 6.0 | 12.0 | 0.00 | 0.00 | 0.00 | 24 | 1014.2 |
| 20260904211401 | 90 | 175 | 8.0 | 10.0 | 0.00 | 0.00 | 0.00 | 24 | 1014.3 |
| 20260904210959 | 90 | 140 | 8.0 | 9.0 | 0.00 | 0.00 | 0.00 | 24 | 1014.2 |
| 20260904210736 | 91 | 132 | 5.0 | 11.0 | 0.00 | 0.00 | 0.00 | 24 | 1014.2 |
| 20260904210559 | 91 | 132 | 5.0 | 11.0 | 0.00 | 0.00 | 0.00 | 0.1 | |
| 20260904210157 | 91 | 200 | 9.0 | 11.0 | 0.00 | 0.00 | 0.00 | 24 | 1014.2 |
| 20260904205756 | 90 | 51 | 2.0 | 10.0 | 0.00 | 0.00 | 0.00 | 24 | 1014.2 |
| 20260904205354 | 90 | 135 | 9.0 | 11.0 | 0.00 | 0.00 | 0.00 | 24 | 1014.1 |
| 20260904204953 | 92 | 261 | 2.0 | 6.0 | 0.00 | 0.00 | 0.00 | 24 | 1014.1 |
| 20260904204553 | 91 | 191 | 4.0 | 9.0 | 0.00 | 0.00 | 0.00 | 24 | 1014.2 |
| 20260904204151 | 88 | 137 | 3.0 | 10.0 | 0.00 | 0.00 | 0.00 | 24 | 1014.2 |
| 20260904203749 | 89 | 119 | 4.0 | 9.0 | 0.00 | 0.00 | 0.00 | 24 | 1014.2 |
| 20260904203348 | 90 | 135 | 6.0 | 10.0 | 0.00 | 0.00 | 0.00 | 24 | 1014.2 |
| 20260904202144 | 92 | 180 | 3.0 | 6.0 | 0.00 | 0.00 | 0.00 | 24 | 1014.3 |
| 20260904201743 | 90 | 247 | 2.0 | 7.0 | 0.00 | 0.00 | 0.00 | 25 | 1014.5 |
| 20260904201342 | 88 | 81 | 2.0 | 12.0 | 0.00 | 0.00 | 0.00 | 25 | 1014.5 |
| 20260904200940 | 90 | 182 | 6.0 | 8.0 | 0.00 | 0.00 | 0.00 | 25 | 1014.5 |
| 20260904195737 | 84 | 0 | 2.0 | 8.0 | 0.00 | 0.00 | 0.00 | 25 | 1014.7 |
| 20260904195336 | 85 | 137 | 7.0 | 9.0 | 0.00 | 0.00 | 0.00 | 26 | 1014.8 |
| 20260904194934 | 86 | 171 | 6.0 | 9.0 | 0.00 | 0.00 | 0.00 | 26 | 1014.8 |
| 20260904194532 | 85 | 175 | 7.0 | 9.0 | 0.00 | 0.00 | 0.00 | 26 | 1014.8 |
| 20260904194130 | 85 | 114 | 9.0 | 12.0 | 0.00 | 0.00 | 0.00 | 26 | 1014.7 |
| 20260904193730 | 87 | 81 | 3.0 | 5.0 | 0.00 | 0.00 | 0.00 | 27 | 1014.9 |
| 20260904193329 | 86 | 153 | 6.0 | 10.0 | 0.00 | 0.00 | 0.00 | 27 | 1015.0 |
| 20260904192927 | 86 | 157 | 3.0 | 7.0 | 0.00 | 0.00 | 0.00 | 27 | 1015.0 |
| 20260904192526 | 84 | 144 | 5.0 | 11.0 | 0.00 | 0.00 | 0.00 | 27 | 1015.0 |
| 20260904192125 | 85 | 96 | 7.0 | 13.0 | 0.00 | 0.00 | 0.00 | 27 | 1015.1 |
| 20260904191723 | 85 | 110 | 5.0 | 10.0 | 0.00 | 0.00 | 0.00 | 27 | 1015.1 |
| 20260904191322 | 86 | 137 | 3.0 | 9.0 | 0.00 | 0.00 | 0.00 | 27 | 1015.2 |
| 20260904190921 | 86 | 230 | 1.0 | 7.0 | 0.00 | 0.00 | 0.00 | 27 | 1015.3 |
| 20260904190112 | 84 | 135 | 8.0 | 10.0 | 0.00 | 0.00 | 0.00 | 28 | 1015.4 |
| 20260904185711 | 84 | 119 | 8.0 | 9.0 | 0.00 | 0.00 | 0.00 | 28 | 1015.2 |
| 20260904184908 | 84 | 81 | 6.0 | 9.0 | 0.00 | 0.00 | 0.00 | 28 | 1015.5 |
| 20260904184107 | 86 | 40 | 1.0 | 5.0 | 0.00 | 0.00 | 0.00 | 19 | 1015.5 |
| 20260904183706 | 85 | 135 | 7.0 | 9.0 | 0.00 | 0.00 | 0.00 | 29 | 1015.6 |
| 20260904182901 | 86 | 267 | 1.0 | 5.0 | 0.00 | 0.00 | 0.00 | 29 | 1015.5 |
| 20260904182500 | 85 | 90 | 1.0 | 9.0 | 0.00 | 0.00 | 0.00 | 29 | 1015.6 |
| 20260904182059 | 87 | 101 | 4.0 | 7.0 | 0.00 | 0.00 | 0.00 | 29 | 1015.6 |
| 20260904181658 | 86 | 230 | 3.0 | 5.0 | 0.00 | 0.00 | 0.00 | 29 | 1015.6 |
| 20260904181257 | 86 | 200 | 2.0 | 6.0 | 0.00 | 0.00 | 0.00 | 30 | 1015.6 |
| 20260904180902 | 86 | 107 | 3.0 | 8.0 | 0.00 | 0.00 | 0.00 | 30 | 1015.7 |
| 20260904180454 | 86 | 42 | 2.0 | 7.0 | 0.00 | 0.00 | 0.00 | 30 | 1015.6 |
| 20260904180052 | 86 | 189 | 3.0 | 7.0 | 0.00 | 0.00 | 0.00 | 30 | 1015.7 |
| 20260904175651 | 86 | 177 | 1.0 | 6.0 | 0.00 | 0.00 | 0.00 | 31 | 1015.8 |
| 20260904175250 | 86 | 182 | 4.0 | 8.0 | 0.00 | 0.00 | 0.00 | 31 | 1015.8 |
| 20260904174849 | 86 | 191 | 5.0 | 7.0 | 0.00 | 0.00 | 0.00 | 31 | 1015.6 |
| 20260904174046 | 85 | 115 | 1.0 | 6.0 | 0.00 | 0.00 | 0.00 | 32 | 1015.7 |
| 20260904173645 | 84 | 171 | 6.0 | 6.0 | 0.00 | 0.00 | 0.00 | 32 | 1015.6 |
| 20260904173244 | 84 | 164 | 3.0 | 6.0 | 0.00 | 0.00 | 0.00 | 33 | 1015.6 |
| 20260904172843 | 84 | 274 | 3.0 | 5.0 | 0.00 | 0.00 | 0.00 | 33 | 1015.6 |
| 20260904172040 | 81 | 130 | 5.0 | 6.0 | 0.00 | 0.00 | 0.00 | 34 | 1015.6 |
| 20260904171639 | 82 | 119 | 0.0 | 5.0 | 0.00 | 0.00 | 0.00 | 34 | 1015.6 |
| 20260904170836 | 79 | 117 | 1.0 | 4.0 | 0.00 | 0.00 | 0.00 | 35 | 1015.6 |
| 20260904170436 | 79 | 40 | 1.0 | 7.0 | 0.00 | 0.00 | 0.00 | 36 | 1015.5 |
| 20260904170036 | 78 | 135 | 5.0 | 8.0 | 0.00 | 0.00 | 0.00 | 36 | 1015.4 |
| 20260904165632 | 79 | 157 | 6.0 | 8.0 | 0.00 | 0.00 | 0.00 | 37 | 1015.4 |
| 20260904165230 | 78 | 85 | 4.0 | 7.0 | 0.00 | 0.00 | 0.00 | 37 | 1015.4 |
| 20260904164834 | 79 | 137 | 5.0 | 5.0 | 0.00 | 0.00 | 0.00 | 38 | 1015.3 |
| 20260904164029 | 78 | 132 | 1.0 | 6.0 | 0.00 | 0.00 | 0.00 | 39 | 1015.3 |
| 20260904163626 | 77 | 81 | 1.0 | 7.0 | 0.00 | 0.00 | 0.00 | 39 | 1015.3 |
| 20260904163225 | 76 | 87 | 6.0 | 8.0 | 0.00 | 0.00 | 0.00 | 40 | 1015.3 |
| 20260904162823 | 76 | 83 | 7.0 | 7.0 | 0.00 | 0.00 | 0.00 | 40 | 1015.3 |
| 20260904162422 | 76 | 112 | 3.0 | 7.0 | 0.00 | 0.00 | 0.00 | 41 | 1015.3 |
| 20260904161619 | 76 | 78 | 5.0 | 8.0 | 0.00 | 0.00 | 0.00 | 42 | 1015.3 |
| 20260904160415 | 77 | 173 | 1.0 | 4.0 | 0.00 | 0.00 | 0.00 | 45 | 1015.2 |
| 20260904155607 | 75 | 175 | 3.0 | 4.0 | 0.00 | 0.00 | 0.00 | 46 | 1015.3 |
| 20260904154805 | 72 | 83 | 2.0 | 5.0 | 0.00 | 0.00 | 0.00 | 47 | 1015.3 |
| 20260904154403 | 71 | 119 | 4.0 | 6.0 | 0.00 | 0.00 | 0.00 | 47 | 1015.3 |
| 20260904154001 | 70 | 103 | 3.0 | 5.0 | 0.00 | 0.00 | 0.00 | 47 | 1015.2 |
| 20260904153600 | 69 | 99 | 4.0 | 6.0 | 0.00 | 0.00 | 0.00 | 47 | 1015.3 |
| 20260904153159 | 69 | 110 | 3.0 | 5.0 | 0.00 | 0.00 | 0.00 | 47 | 1015.2 |
| 20260904152758 | 70 | 81 | 4.0 | 6.0 | 0.00 | 0.00 | 0.00 | 48 | 1015.2 |
| 20260904152358 | 70 | 94 | 3.0 | 5.0 | 0.00 | 0.00 | 0.00 | 48 | 1015.2 |
| 20260904151956 | 70 | 90 | 4.0 | 6.0 | 0.00 | 0.00 | 0.00 | 49 | 1015.2 |
| 20260904151153 | 70 | 132 | 3.0 | 5.0 | 0.00 | 0.00 | 0.00 | 50 | 1015.1 |
| 20260904145949 | 67 | 137 | 0.0 | 3.0 | 0.00 | 0.00 | 0.00 | 51 | 1015.1 |
| 20260904145548 | 67 | 42 | 0.0 | 1.0 | 0.00 | 0.00 | 0.00 | 51 | 1015.0 |
| 20260904144747 | 67 | 36 | 0.0 | 1.0 | 0.00 | 0.00 | 0.00 | 52 | 1014.9 |
| 20260904143541 | 65 | 315 | 0.0 | 1.0 | 0.00 | 0.00 | 0.00 | 52 | 1014.9 |
| 20260904142340 | 63 | 274 | 0.0 | 0.0 | 0.00 | 0.00 | 0.00 | 53 | 1014.8 |
| 20260904141939 | 62 | 288 | 0.0 | 0.0 | 0.00 | 0.00 | 0.00 | 53 | 1014.7 |
| 20260904141535 | 61 | 182 | 0.0 | 0.0 | 0.00 | 0.00 | 0.00 | 53 | 1014.6 |
| 20260904141134 | 60 | 233 | 0.0 | 0.0 | 0.00 | 0.00 | 0.00 | 53 | 1014.6 |
| 20260904140734 | 60 | 237 | 0.0 | 0.0 | 0.00 | 0.00 | 0.00 | 53 | 1014.5 |
| 20260904140330 | 59 | 232 | 0.0 | 0.0 | 0.00 | 0.00 | 0.00 | 53 | 1014.6 |
| 20260904135929 | 58 | 234 | 0.0 | 0.0 | 0.00 | 0.00 | 0.00 | 53 | 1014.4 |
| 20260904135528 | 58 | 279 | 0.0 | 0.0 | 0.00 | 0.00 | 0.00 | 53 | 1014.4 |
| 20260904134727 | 58 | 308 | 0.0 | 0.0 | 0.00 | 0.00 | 0.00 | 53 | 1014.3 |
| 20260904134325 | 58 | 279 | 0.0 | 1.0 | 0.00 | 0.00 | 0.00 | 53 | 1014.2 |
| 20260904133923 | 58 | 274 | 1.0 | 1.0 | 0.00 | 0.00 | 0.00 | 53 | 1014.2 |
| 20260904133121 | 58 | 292 | 0.0 | 0.0 | 0.00 | 0.00 | 0.00 | 52 | 1014.3 |
| 20260904131917 | 58 | 294 | 0.0 | 0.0 | 0.00 | 0.00 | 0.00 | 52 | 1014.3 |
| 20260904131516 | 58 | 299 | 0.0 | 0.0 | 0.00 | 0.00 | 0.00 | 52 | 1014.3 |
| 20260904130714 | 58 | 186 | 0.0 | 0.0 | 0.00 | 0.00 | 0.00 | 52 | 1014.3 |
| 20260904130312 | 58 | 184 | 0.0 | 0.0 | 0.00 | 0.00 | 0.00 | 52 | 1014.3 |
| 20260904125107 | 58 | 209 | 0.0 | 1.0 | 0.00 | 0.00 | 0.00 | 52 | 1014.2 |
| 20260904124305 | 58 | 247 | 0.0 | 0.0 | 0.00 | 0.00 | 0.00 | 52 | 1014.2 |
| 20260904123904 | 58 | 274 | 0.0 | 0.0 | 0.00 | 0.00 | 0.00 | 52 | 1014.2 |
| 20260904123102 | 58 | 283 | 0.0 | 0.0 | 0.00 | 0.00 | 0.00 | 52 | 1014.1 |
| 20260904122700 | 58 | 279 | 0.0 | 0.0 | 0.00 | 0.00 | 0.00 | 52 | 1014.1 |
| 20260904121858 | 58 | 241 | 1.0 | 1.0 | 0.00 | 0.00 | 0.00 | 52 | 1014.1 |
| 20260904121457 | 58 | 283 | 1.0 | 1.0 | 0.00 | 0.00 | 0.00 | 52 | 1014.1 |
| 20260904121055 | 58 | 274 | 0.0 | 0.0 | 0.00 | 0.00 | 0.00 | 52 | 1014.1 |
| 20260904120656 | 58 | 288 | 0.0 | 0.0 | 0.00 | 0.00 | 0.00 | 52 | 0.1 |
| 20260904120654 | 58 | 288 | 0.0 | 0.0 | 0.00 | 0.00 | 0.00 | 52 | 1014.0 |
| 20260904120252 | 58 | 279 | 0.0 | 1.0 | 0.00 | 0.00 | 0.00 | 52 | 1014.1 |
| 20260904115852 | 58 | 335 | 0.0 | 1.0 | 0.00 | 0.00 | 0.00 | 52 | 1014.0 |
| 20260904115450 | 58 | 42 | 1.0 | 1.0 | 0.00 | 0.00 | 0.00 | 52 | 1014.0 |
| 20260904115049 | 58 | 283 | 0.0 | 0.0 | 0.00 | 0.00 | 0.00 | 52 | 1014.1 |
| 20260904114649 | 58 | 274 | 0.0 | 0.0 | 0.00 | 0.00 | 0.00 | 52 | 1014.0 |
| 20260904114246 | 58 | 279 | 0.0 | 0.0 | 0.00 | 0.00 | 0.00 | 52 | 1014.1 |
| 20260904113443 | 58 | 285 | 0.0 | 1.0 | 0.00 | 0.00 | 0.00 | 52 | 1014.1 |
| 20260904112641 | 58 | 301 | 0.0 | 0.0 | 0.00 | 0.00 | 0.00 | 53 | 1014.2 |
| 20260904112241 | 58 | 279 | 0.0 | 0.0 | 0.00 | 0.00 | 0.00 | 53 | 1014.1 |
| 20260904111839 | 58 | 339 | 0.0 | 2.0 | 0.00 | 0.00 | 0.00 | 53 | 1014.2 |
| 20260904111437 | 58 | 270 | 0.0 | 0.0 | 0.00 | 0.00 | 0.00 | 53 | 1014.1 |
| 20260904111036 | 58 | 288 | 0.0 | 1.0 | 0.00 | 0.00 | 0.00 | 53 | 1014.1 |
| 20260904110634 | 58 | 272 | 0.0 | 1.0 | 0.00 | 0.00 | 0.00 | 53 | 1014.2 |
| 20260904110233 | 58 | 274 | 0.0 | 0.0 | 0.00 | 0.00 | 0.00 | 53 | 1014.2 |
| 20260904105832 | 58 | 288 | 0.0 | 0.0 | 0.00 | 0.00 | 0.00 | 52 | 1014.2 |
| 20260904105431 | 58 | 283 | 0.0 | 0.0 | 0.00 | 0.00 | 0.00 | 52 | 1014.2 |
| 20260904105029 | 58 | 333 | 0.0 | 0.0 | 0.00 | 0.00 | 0.00 | 52 | 1014.2 |
| 20260904104628 | 58 | 321 | 0.0 | 0.0 | 0.00 | 0.00 | 0.00 | 52 | 1014.1 |
| 20260904104227 | 58 | 330 | 0.0 | 0.0 | 0.00 | 0.00 | 0.00 | 52 | 1014.2 |
| 20260904103425 | 58 | 330 | 0.0 | 0.0 | 0.00 | 0.00 | 0.00 | 52 | 1014.0 |
| 20260904103023 | 58 | 326 | 0.0 | 0.0 | 0.00 | 0.00 | 0.00 | 52 | 1014.1 |
| 20260904102621 | 58 | 321 | 0.0 | 0.0 | 0.00 | 0.00 | 0.00 | 52 | 1014.1 |
| 20260904102220 | 58 | 319 | 0.0 | 0.0 | 0.00 | 0.00 | 0.00 | 52 | 1014.1 |
| 20260904101819 | 58 | 330 | 0.0 | 0.0 | 0.00 | 0.00 | 0.00 | 51 | 1014.0 |
| 20260904101420 | 58 | 346 | 0.0 | 0.0 | 0.00 | 0.00 | 0.00 | 51 | 1014.0 |
| 20260904100615 | 58 | 328 | 0.0 | 0.0 | 0.00 | 0.00 | 0.00 | 51 | 1014.0 |
| 20260904100214 | 58 | 337 | 0.0 | 0.0 | 0.00 | 0.00 | 0.00 | 51 | 1014.1 |
| 20260904095812 | 58 | 274 | 0.0 | 0.0 | 0.00 | 0.00 | 0.00 | 51 | 1014.1 |
| 20260904095412 | 58 | 279 | 0.0 | 0.0 | 0.00 | 0.00 | 0.00 | 51 | 1013.9 |
| 20260904095010 | 58 | 279 | 0.0 | 0.0 | 0.00 | 0.00 | 0.00 | 51 | 1013.9 |
| 20260904094609 | 58 | 292 | 0.0 | 0.0 | 0.00 | 0.00 | 0.00 | 51 | 1014.1 |
| 20260904094208 | 58 | 247 | 0.0 | 0.0 | 0.00 | 0.00 | 0.00 | 51 | 1013.9 |
| 20260904093806 | 58 | 274 | 0.0 | 0.0 | 0.00 | 0.00 | 0.00 | 51 | 1013.9 |
| 20260904093405 | 58 | 274 | 0.0 | 0.0 | 0.00 | 0.00 | 0.00 | 51 | 1013.9 |
| 20260904092603 | 59 | 274 | 0.0 | 0.0 | 0.00 | 0.00 | 0.00 | 51 | 1013.9 |
| 20260904092201 | 59 | 288 | 0.0 | 0.0 | 0.00 | 0.00 | 0.00 | 51 | 1013.9 |
| 20260904091358 | 59 | 227 | 0.0 | 0.0 | 0.00 | 0.00 | 0.00 | 50 | 1013.9 |
| 20260904090957 | 59 | 292 | 0.0 | 0.0 | 0.00 | 0.00 | 0.00 | 50 | 1013.8 |
| 20260904090556 | 59 | 335 | 0.0 | 0.0 | 0.00 | 0.00 | 0.00 | 50 | 1013.8 |
| 20260904090155 | 59 | 306 | 0.0 | 0.0 | 0.00 | 0.00 | 0.00 | 50 | 1013.9 |
| 20260904085754 | 59 | 274 | 0.0 | 1.0 | 0.00 | 0.00 | 0.00 | 50 | 1013.9 |
| 20260904085352 | 59 | 279 | 0.0 | 0.0 | 0.00 | 0.00 | 0.00 | 50 | 1014.0 |
| 20260904084950 | 59 | 301 | 0.0 | 0.0 | 0.00 | 0.00 | 0.00 | 50 | 1013.9 |
| 20260904084549 | 59 | 294 | 0.0 | 0.0 | 0.00 | 0.00 | 0.00 | 50 | 1014.1 |
| 20260904084148 | 60 | 297 | 0.0 | 0.0 | 0.00 | 0.00 | 0.00 | 50 | 1014.1 |
| 20260904083747 | 60 | 184 | 0.0 | 0.0 | 0.00 | 0.00 | 0.00 | 50 | 1014.1 |
| 20260904082945 | 60 | 294 | 0.0 | 0.0 | 0.00 | 0.00 | 0.00 | 50 | 1014.1 |
| 20260904082544 | 60 | 292 | 0.0 | 0.0 | 0.00 | 0.00 | 0.00 | 50 | 1014.0 |
| 20260904082142 | 60 | 306 | 0.0 | 0.0 | 0.00 | 0.00 | 0.00 | 49 | 1014.1 |
| 20260904081741 | 60 | 38 | 0.0 | 0.0 | 0.00 | 0.00 | 0.00 | 49 | 1014.2 |
| 20260904081339 | 60 | 42 | 0.0 | 0.0 | 0.00 | 0.00 | 0.00 | 49 | 1014.2 |
| 20260904080938 | 61 | 344 | 0.0 | 0.0 | 0.00 | 0.00 | 0.00 | 49 | 1014.3 |